Airfield :
LOGIN :

Register | Disclaimer

   EN    FR    IT 

 










Legend :    VFR   Marginal VFR   IFR   Intensive IFR   Very Intensive IFR
Visi :
Ceiling :
>= 8 km
>= 3000ft
5 to 8 km
1000 to 3000 ft
1500m to 5 km
500 to 1000 ft
800 to 1500m
200 to 500 ft
< 800m
< 200 ft
Symbols :   Thunderstorms  Fog  Heavy snow  Heavy precipitations  Wind > 20 kt
SIGMETs :     Misc.  Thunderstorms  Icing  Turbulence  Mountain Waves  Volcanic Ashes






- Airport Elevation : 989 ft
- IATA code : TRN


LIMF - Torino Caselle

CURRENT METAR :
  • 070850Z VRB04KT CAVOK 17/10 Q1009

EXPIRED METARs :
  • 070820Z 15004KT 100V260 CAVOK 16/10 Q1009
  • 070750Z VRB03KT CAVOK 15/10 Q1009
  • 070720Z VRB02KT CAVOK 15/10 Q1009
  • 070650Z 22004KT 190V250 9999 FEW030 14/09 Q1009
  • 070620Z 20003KT 160V240 CAVOK 12/09 Q1008

TAF TAF LIMF
Valid from the 07 at 06:00 until the 08 at 06:00 UTC


070500Z 0706/0806 34008KT 9999 FEW050



MET'MAP, your aeronautical weather chart ! - Copyright ORBIFLY December 2007 - Disclaimer

ORBIFLY MET'MAP TEAM :

Programming & Development : Alexandra Zaïnal
Concept & original design : Baudouin d'Aumeries
Assistance for programming : Marc-Olivier Méhu
Technical & hardware support : Manuel Goepfert

Contact : metmap@orbifly.com




SOURCES & CREDITS :

   NOAA